APG819 RPLL-RPVM

Flight info

Callsign APG819
Flight time N/A
Altitude 37000
Route IPATA2P IPATA W25 BATAY BATAY3P
Aircraft A20N/M-SDE2E3FGHIRWXY/LB1

Departure

Time 2026-05-04 05:39
Airport Ninoy Aquino International Airport (RPLL)

Arrival

Time N/A
Airport Mactan Cebu International Airport (RPVM)
Time Latitude Longitude Altitude Speed Heading
2026-05-04 05:04 14.50850 121.01301 50 ft 0 kts 332°
2026-05-04 05:23 14.50850 121.01302 50 ft 1 kts 332°
2026-05-04 05:23 14.50843 121.01305 50 ft 1 kts 332°
2026-05-04 05:24 14.50836 121.01309 50 ft 1 kts 332°
2026-05-04 05:24 14.50829 121.01313 50 ft 1 kts 332°
2026-05-04 05:24 14.50822 121.01317 48 ft 1 kts 332°
2026-05-04 05:24 14.50815 121.01320 48 ft 1 kts 332°
2026-05-04 05:25 14.50808 121.01324 48 ft 1 kts 332°
2026-05-04 05:25 14.50802 121.01328 46 ft 1 kts 336°
2026-05-04 05:25 14.50795 121.01331 47 ft 1 kts 345°
2026-05-04 05:25 14.50775 121.01333 44 ft 3 kts 12°
2026-05-04 05:26 14.50759 121.01325 43 ft 0 kts 61°
2026-05-04 05:26 14.50760 121.01326 44 ft 0 kts 59°
2026-05-04 05:29 14.50762 121.01329 44 ft 2 kts 59°
2026-05-04 05:29 14.50782 121.01364 49 ft 10 kts 59°
2026-05-04 05:31 14.50919 121.01783 51 ft 6 kts 57°
2026-05-04 05:31 14.50953 121.01838 56 ft 12 kts 58°
2026-05-04 05:32 14.51003 121.01939 52 ft 7 kts 88°
2026-05-04 05:32 14.51048 121.02019 51 ft 28 kts 36°
2026-05-04 05:32 14.51077 121.02056 53 ft 9 kts 66°
2026-05-04 05:33 14.51080 121.02064 55 ft 6 kts 68°
2026-05-04 05:33 14.51087 121.02075 51 ft 0 kts 58°
2026-05-04 05:33 14.51087 121.02076 51 ft 2 kts 58°
2026-05-04 05:33 14.51109 121.02111 55 ft 10 kts 58°
2026-05-04 05:34 14.51161 121.02203 56 ft 19 kts 60°
2026-05-04 05:34 14.51187 121.02249 53 ft 4 kts 60°
2026-05-04 05:34 14.51204 121.02278 50 ft 2 kts 60°
2026-05-04 05:34 14.51208 121.02287 52 ft 2 kts 61°
2026-05-04 05:35 14.51205 121.02311 55 ft 5 kts 129°
2026-05-04 05:35 14.51220 121.02341 52 ft 9 kts 50°
2026-05-04 05:35 14.51277 121.02419 53 ft 18 kts 58°
2026-05-04 05:35 14.51326 121.02502 56 ft 23 kts 60°
2026-05-04 05:36 14.51444 121.02716 54 ft 14 kts 60°
2026-05-04 05:36 14.51468 121.02759 57 ft 8 kts 59°
2026-05-04 05:36 14.51488 121.02796 52 ft 10 kts 63°
2026-05-04 05:36 14.51491 121.02835 60 ft 6 kts 108°
2026-05-04 05:37 14.51483 121.02848 56 ft 1 kts 128°
2026-05-04 05:37 14.51468 121.02863 59 ft 4 kts 143°
2026-05-04 05:37 14.51430 121.02878 57 ft 7 kts 169°
2026-05-04 05:38 14.51324 121.02795 57 ft 14 kts 238°
2026-05-04 05:38 14.51183 121.02548 56 ft 75 kts 238°
2026-05-04 05:38 14.50809 121.01887 49 ft 135 kts 241°
2026-05-04 05:38 14.50261 121.00936 206 ft 165 kts 238°
2026-05-04 05:39 14.49696 120.99909 797 ft 168 kts 238°
2026-05-04 05:39 14.48483 120.97711 1923 ft 179 kts 239°
2026-05-04 05:39 14.47838 120.96544 2313 ft 195 kts 239°
2026-05-04 05:40 14.46355 120.93872 2860 ft 236 kts 239°
2026-05-04 05:40 14.45500 120.92335 3112 ft 257 kts 239°
2026-05-04 05:40 14.44593 120.90722 3660 ft 262 kts 235°
2026-05-04 05:41 14.43292 120.89411 4088 ft 269 kts 207°
2026-05-04 05:41 14.41489 120.88841 4455 ft 274 kts 178°
2026-05-04 05:41 14.39656 120.89210 5066 ft 268 kts 152°
2026-05-04 05:41 14.38096 120.90207 5669 ft 268 kts 141°
2026-05-04 05:42 14.36599 120.91372 6204 ft 270 kts 140°
2026-05-04 05:42 14.35055 120.92506 6729 ft 273 kts 143°
2026-05-04 05:42 14.33439 120.93582 7176 ft 278 kts 145°
2026-05-04 05:42 14.31765 120.94612 7665 ft 281 kts 146°
2026-05-04 05:43 14.30106 120.95701 8078 ft 282 kts 135°
2026-05-04 05:43 14.28934 120.97260 8480 ft 280 kts 115°
2026-05-04 05:43 14.28024 120.99027 8987 ft 281 kts 115°
2026-05-04 05:45 14.21318 121.12417 10522 ft 330 kts 114°
2026-05-04 05:45 14.20263 121.14521 10892 ft 325 kts 114°
2026-05-04 05:47 14.14100 121.26798 14695 ft 264 kts 116°
2026-05-04 05:47 14.13265 121.28460 14925 ft 263 kts 115°
2026-05-04 05:47 14.12421 121.30138 15143 ft 265 kts 116°
2026-05-04 05:48 14.11569 121.31833 15338 ft 266 kts 116°
2026-05-04 05:48 14.10710 121.33539 15488 ft 269 kts 116°
2026-05-04 05:48 14.09848 121.35251 15710 ft 268 kts 116°
2026-05-04 05:48 14.08990 121.36951 15931 ft 266 kts 115°
2026-05-04 05:49 14.08142 121.38636 16059 ft 269 kts 116°
2026-05-04 05:49 14.07284 121.40344 16203 ft 270 kts 116°
2026-05-04 05:49 14.06409 121.42082 16288 ft 276 kts 116°
2026-05-04 05:49 14.05516 121.43858 16313 ft 282 kts 116°
2026-05-04 05:51 14.03446 121.47970 16394 ft 0 kts 116°